Probability
0 0 0 0 0 0 0 0 0 0 0 3 0 6 10 16 23 23 29 26 35 39 42 39 52 48 52 61 71 74 74 74 71 61 58 58 45 45 42 45 48 48 52 39
0 0 0 0 0 0 0 0 0 0 0 0 0 3 6 16 23 26 29 29 35 35 35 42 48 48 55 65 71 74 71 71 71 68 65 65 55 45 48 48 52 52 42 35
0 0 0 0 0 0 0 0 0 0 0 0 3 3 3 10 16 26 26 29 29 32 39 45 52 48 48 55 61 55 68 68 68 61 65 61 61 61 48 55 58 55 42 35
0 0 0 0 0 0 0 0 0 0 0 3 3 3 3 6 16 23 26 29 35 39 42 48 42 52 45 45 55 55 68 65 65 58 52 52 55 55 55 61 55 55 45 29
0 0 0 0 0 0 0 0 0 0 0 3 3 0 3 6 10 19 26 29 32 42 39 45 42 55 48 45 52 52 61 65 65 58 58 55 52 52 48 55 58 52 42 39
0 0 0 0 0 0 0 0 0 0 0 0 0 0 3 6 6 13 23 23 32 35 45 45 48 58 55 48 48 58 58 65 61 52 52 55 52 45 52 52 55 45 42 35
0 0 0 0 0 0 0 0 0 0 0 0 0 0 0 13 6 6 16 16 23 39 39 39 42 55 52 48 58 58 58 61 61 52 48 52 45 48 45 48 52 48 42 39
0 0 0 0 0 0 0 0 0 0 0 0 0 0 3 6 6 10 10 16 19 32 35 29 42 45 48 55 55 52 55 58 55 48 48 48 45 42 42 48 45 45 42 39
0 0 0 0 0 0 0 0 0 0 0 0 0 3 10 10 13 13 10 16 23 29 29 29 29 35 48 55 55 55 52 55 48 48 42 42 42 39 39 45 48 42 42 42
0 0 0 0 0 0 0 0 0 0 0 0 0 0 3 13 16 10 16 16 26 26 35 35 29 35 42 52 58 52 52 48 45 48 45 42 42 42 42 45 52 42 45 42
0 0 0 0 0 0 0 0 0 0 0 0 0 0 10 13 13 16 16 16 19 19 29 35 32 39 35 48 55 55 52 52 45 39 45 45 42 42 45 52 48 48 48 45
0 0 0 0 0 0 0 0 0 0 0 0 0 0 0 10 13 16 19 19 23 23 19 29 35 29 35 39 45 55 52 52 48 45 42 39 45 42 45 48 45 48 45 45
0 0 0 0 0 0 0 0 0 0 0 0 0 0 3 6 10 10 13 16 19 26 29 32 42 39 39 45 42 48 45 45 45 42 42 42 42 42 39 42 45 48 42 42
0 0 0 0 0 0 0 0 0 0 0 0 0 0 0 6 6 10 19 19 19 26 29 35 42 39 45 42 45 42 48 42 39 42 42 42 39 32 32 35 35 35 39 39
0 0 0 0 0 0 0 0 0 0 0 0 0 0 0 0 13 13 19 19 19 23 29 35 39 42 42 45 39 39 39 32 32 32 35 39 35 32 29 32 35 35 32 26
0 0 0 0 0 0 0 0 0 0 0 0 0 0 0 6 10 13 23 26 29 29 32 39 39 39 42 42 39 39 35 32 29 29 35 35 32 26 29 32 35 35 26 26
0 0 0 0 0 0 0 0 0 0 0 0 0 0 3 6 13 16 19 23 29 35 35 35 42 39 35 39 42 39 35 32 32 29 26 23 23 26 35 26 29 32 29 29
0 0 0 0 0 0 0 0 0 0 0 0 0 0 6 10 13 16 16 23 32 35 32 35 39 39 35 39 39 39 29 29 29 26 19 16 13 19 29 29 29 26 23 23
0 0 0 0 0 0 0 0 0 0 0 0 0 3 3 3 10 13 13 19 26 32 39 32 35 39 35 35 39 32 29 29 26 23 16 13 19 23 19 19 19 23 23 26
0 0 0 0 0 0 0 0 0 0 0 0 0 0 3 6 6 10 13 23 23 29 32 35 35 29 32 32 35 29 26 26 23 23 19 13 13 13 10 19 16 16 19 23
0 0 0 0 0 0 0 0 0 0 0 0 3 10 6 6 6 16 19 23 29 26 26 26 32 29 32 32 29 32 29 29 26 23 23 19 13 10 10 13 16 16 16 13
0 0 0 0 0 0 0 0 0 0 6 6 6 16 19 23 23 16 29 26 29 26 23 23 29 32 32 29 29 35 26 26 26 23 23 13 13 6 10 16 16 16 16 13
0 0 0 0 0 6 3 6 6 6 6 6 10 13 13 16 19 19 26 26 29 23 23 19 26 29 29 19 23 29 19 23 23 23 19 13 13 10 10 13 16 16 16 10
0 0 0 0 3 3 3 3 6 3 3 6 6 10 10 16 16 16 29 29 26 19 26 19 26 23 23 19 19 23 23 19 23 23 19 13 10 10 10 16 6 6 6 10
0 0 0 0 3 3 3 6 3 3 3 6 6 6 10 13 16 23 29 23 23 19 23 23 19 23 23 19 16 19 19 19 19 19 19 13 10 10 10 10 10 6 6 6
0 0 0 3 3 3 3 3 3 3 6 6 3 6 13 16 19 16 19 19 19 19 23 19 19 19 23 23 16 16 16 19 19 16 13 10 13 10 10 10 6 6 6 6
Height
5850 5853 5854 5857 5858 5861 5862 5863 5864 5865 5866 5868 5869 5871 5873 5874 5875 5875 5876 5877 5878 5878 5879 5879 5879 5879 5879 5878 5878 5877 5876 5874 5873 5872 5871 5870 5869 5868 5867 5866 5865 5865 5864 5864
5846 5848 5850 5851 5853 5855 5857 5859 5860 5861 5861 5864 5865 5867 5868 5869 5870 5871 5872 5873 5874 5875 5875 5876 5876 5876 5876 5875 5874 5873 5872 5871 5870 5869 5868 5867 5866 5865 5864 5864 5863 5862 5862 5861
5841 5844 5845 5847 5848 5850 5852 5854 5855 5856 5857 5859 5861 5863 5864 5865 5866 5867 5868 5869 5870 5871 5872 5872 5872 5872 5872 5872 5871 5870 5869 5868 5867 5866 5865 5864 5863 5862 5862 5861 5861 5860 5859 5859
5835 5837 5839 5841 5844 5846 5848 5849 5850 5851 5853 5855 5857 5859 5859 5860 5862 5863 5864 5865 5866 5867 5868 5868 5868 5868 5868 5868 5867 5867 5866 5865 5864 5863 5862 5861 5860 5859 5859 5858 5858 5857 5856 5856
5831 5832 5834 5836 5839 5841 5843 5844 5845 5847 5848 5850 5851 5854 5856 5855 5857 5859 5860 5861 5861 5862 5863 5864 5864 5864 5864 5864 5864 5863 5862 5861 5860 5859 5858 5857 5857 5856 5855 5855 5855 5855 5854 5853
5826 5827 5829 5831 5833 5835 5837 5839 5840 5842 5843 5845 5847 5848 5850 5851 5852 5854 5855 5856 5857 5857 5858 5859 5859 5860 5860 5860 5859 5859 5858 5858 5857 5856 5855 5854 5853 5853 5852 5852 5852 5852 5852 5851
5821 5822 5824 5826 5828 5830 5832 5834 5836 5837 5838 5840 5841 5842 5844 5845 5847 5848 5850 5851 5851 5852 5853 5854 5855 5855 5855 5855 5855 5855 5854 5853 5853 5852 5851 5851 5850 5849 5849 5849 5849 5849 5849 5849
5816 5819 5819 5821 5823 5825 5827 5830 5833 5835 5836 5837 5835 5836 5839 5840 5841 5843 5844 5845 5846 5847 5848 5849 5850 5851 5851 5851 5851 5851 5850 5850 5849 5848 5848 5847 5847 5846 5846 5846 5846 5846 5846 5846
5811 5813 5814 5816 5818 5820 5821 5823 5827 5829 5830 5831 5831 5832 5833 5834 5835 5837 5839 5840 5841 5842 5843 5844 5845 5846 5846 5846 5847 5847 5847 5846 5845 5845 5844 5844 5844 5843 5843 5843 5843 5843 5843 5843
5805 5807 5808 5810 5812 5814 5816 5818 5820 5822 5824 5826 5827 5827 5829 5829 5830 5832 5833 5834 5836 5837 5838 5839 5840 5841 5842 5842 5842 5842 5842 5842 5841 5841 5840 5840 5840 5840 5840 5840 5840 5839 5840 5840
5799 5801 5803 5804 5806 5809 5810 5812 5814 5817 5818 5821 5823 5825 5823 5824 5825 5827 5828 5829 5831 5832 5833 5834 5835 5836 5837 5837 5838 5838 5838 5837 5837 5837 5836 5836 5836 5836 5835 5836 5835 5835 5835 5835
5792 5795 5797 5798 5800 5802 5804 5806 5808 5811 5812 5814 5817 5821 5817 5818 5819 5821 5823 5824 5825 5827 5828 5829 5830 5831 5832 5832 5833 5833 5833 5833 5833 5832 5832 5832 5831 5831 5831 5831 5831 5831 5831 5831
5785 5788 5790 5792 5795 5796 5797 5799 5801 5804 5806 5807 5810 5814 5811 5812 5814 5815 5817 5818 5820 5821 5822 5823 5824 5825 5826 5827 5827 5828 5828 5828 5828 5827 5827 5827 5827 5826 5827 5827 5827 5827 5826 5826
5779 5781 5784 5788 5788 5788 5790 5792 5794 5797 5799 5801 5803 5805 5805 5806 5808 5809 5810 5812 5814 5815 5816 5817 5818 5819 5820 5821 5822 5822 5822 5822 5823 5823 5823 5823 5823 5823 5823 5822 5822 5821 5821 5821
5771 5774 5776 5778 5780 5781 5783 5785 5787 5789 5792 5794 5797 5797 5799 5800 5801 5802 5804 5805 5807 5809 5810 5811 5812 5813 5814 5815 5816 5816 5817 5817 5817 5818 5818 5818 5818 5818 5818 5817 5817 5816 5816 5815
5764 5767 5769 5770 5772 5774 5776 5778 5780 5782 5784 5786 5789 5791 5792 5792 5794 5796 5797 5799 5801 5802 5803 5804 5805 5806 5808 5809 5809 5810 5811 5811 5812 5812 5812 5812 5812 5812 5812 5812 5812 5811 5810 5810
5758 5760 5762 5764 5765 5766 5768 5771 5773 5775 5777 5779 5781 5784 5785 5786 5787 5789 5791 5792 5794 5795 5797 5798 5799 5800 5801 5802 5803 5804 5805 5806 5806 5806 5806 5807 5807 5807 5807 5806 5806 5806 5805 5804
5751 5753 5754 5757 5759 5760 5764 5764 5766 5768 5770 5772 5774 5776 5778 5779 5780 5782 5784 5785 5787 5788 5790 5791 5792 5793 5794 5795 5797 5798 5799 5799 5800 5800 5800 5800 5800 5800 5800 5800 5800 5800 5799 5798
5744 5746 5747 5750 5751 5753 5756 5757 5759 5761 5763 5765 5767 5768 5770 5772 5774 5775 5777 5778 5780 5781 5782 5784 5785 5786 5788 5789 5790 5791 5792 5792 5793 5793 5794 5793 5794 5793 5793 5793 5793 5793 5792 5791
5737 5739 5741 5743 5745 5747 5750 5751 5752 5755 5756 5758 5760 5761 5763 5765 5767 5769 5770 5772 5773 5774 5776 5777 5778 5779 5780 5781 5783 5784 5785 5785 5786 5787 5787 5787 5787 5787 5787 5786 5786 5785 5785 5784
5731 5732 5734 5736 5738 5740 5742 5744 5746 5749 5750 5751 5752 5754 5756 5758 5760 5762 5763 5764 5766 5767 5768 5770 5771 5772 5773 5774 5775 5776 5777 5778 5778 5779 5779 5779 5779 5779 5779 5779 5778 5777 5777 5777
5725 5726 5728 5730 5732 5735 5735 5737 5739 5741 5742 5744 5745 5747 5749 5751 5752 5754 5755 5757 5758 5760 5761 5762 5764 5765 5766 5767 5768 5769 5770 5770 5771 5771 5771 5772 5772 5772 5771 5771 5770 5770 5769 5769
5718 5720 5722 5724 5727 5727 5728 5729 5731 5733 5735 5736 5738 5740 5742 5744 5745 5747 5748 5750 5751 5753 5754 5755 5756 5757 5758 5759 5760 5761 5762 5762 5763 5763 5763 5764 5764 5763 5763 5763 5762 5761 5761 5760
5713 5714 5716 5717 5719 5720 5721 5722 5724 5726 5727 5729 5731 5732 5734 5736 5738 5739 5740 5742 5743 5745 5746 5747 5748 5750 5750 5751 5752 5753 5753 5754 5755 5755 5755 5755 5755 5755 5755 5754 5753 5753 5753 5752
5707 5708 5709 5711 5712 5713 5714 5716 5718 5719 5720 5722 5723 5725 5726 5728 5730 5731 5732 5734 5735 5737 5738 5739 5740 5741 5742 5743 5744 5744 5745 5746 5746 5747 5747 5747 5747 5747 5747 5746 5746 5745 5744 5744
5701 5702 5703 5705 5706 5707 5709 5710 5711 5712 5713 5715 5716 5717 5718 5720 5721 5723 5724 5726 5727 5728 5730 5731 5732 5732 5733 5734 5735 5735 5736 5737 5737 5738 5738 5738 5738 5738 5738 5738 5737 5736 5736 5735
Wind_Speed
20 20 19 19 19 19 19 19 19 20 20 19 20 20 19 18 18 16 16 15 15 15 14 13 13 12 12 12 12 12 12 12 13 12 11 10 10 10 10 9 9 10 10 9
20 21 21 21 20 19 19 19 19 21 21 20 20 20 20 19 18 17 17 17 17 16 15 14 13 13 14 14 14 13 12 12 12 12 11 11 11 11 10 10 9 9 10 10
20 22 22 21 21 20 20 20 21 22 22 22 22 20 20 20 19 18 18 18 18 17 16 16 15 15 16 15 14 13 13 12 12 12 12 11 11 11 12 12 10 10 10 11
20 21 21 21 21 21 21 21 21 22 22 22 23 20 21 21 20 19 19 19 19 19 18 18 18 17 16 16 15 14 12 12 12 12 12 12 12 11 12 13 11 10 10 11
20 20 20 21 21 21 21 22 22 22 23 23 23 22 21 22 21 20 19 19 18 19 19 18 18 17 17 16 16 15 14 13 12 12 12 13 13 12 12 12 11 10 10 10
20 20 20 20 21 21 21 21 22 22 23 24 24 24 22 23 21 20 20 20 20 20 19 19 18 18 18 18 17 15 15 14 13 13 13 13 12 12 12 11 11 10 10 9
20 21 21 20 21 21 21 20 20 21 22 23 24 25 24 23 22 21 21 20 20 20 20 19 18 17 17 17 16 15 15 15 14 14 14 14 13 12 12 12 12 11 11 11
21 21 22 21 21 21 21 20 21 21 20 21 23 24 23 21 22 21 21 21 20 20 19 19 19 18 17 17 16 16 15 15 15 14 14 14 13 13 12 12 12 12 12 12
22 23 23 22 21 21 21 21 21 21 20 21 22 24 23 21 21 21 21 21 21 20 20 20 19 19 18 17 17 16 16 15 15 15 15 14 13 13 13 13 13 13 13 13
23 24 24 23 22 22 22 21 22 22 21 21 22 23 22 21 21 21 21 22 22 22 21 21 20 20 19 18 18 18 17 17 17 17 16 15 15 15 14 15 14 14 15 15
24 23 24 25 24 23 23 23 23 22 23 21 19 21 22 21 21 21 22 22 23 23 23 22 22 21 20 19 19 19 19 19 19 18 17 17 16 16 16 16 16 16 16 16
24 24 24 24 25 25 25 24 24 24 24 23 21 21 22 22 22 22 22 22 22 23 23 23 23 22 21 20 20 19 19 19 19 19 18 17 18 18 17 16 17 17 17 17
25 25 24 23 24 25 26 26 25 25 25 25 23 22 23 23 22 23 23 23 23 23 23 23 24 23 22 21 21 21 20 20 20 19 18 18 19 18 17 17 17 18 17 17
25 26 25 23 24 25 26 26 26 27 26 26 24 24 25 24 23 23 23 23 23 23 22 22 22 23 22 23 23 22 22 21 21 20 19 19 19 19 19 18 18 18 18 19
25 25 26 26 26 26 27 27 27 28 27 27 25 25 25 24 24 23 23 24 23 23 23 23 23 23 23 23 23 23 23 22 22 21 20 20 20 19 20 19 19 20 20 20
25 25 25 26 27 27 27 28 27 27 27 27 26 26 26 25 23 23 23 23 23 23 23 24 24 23 24 24 24 24 23 22 22 22 21 21 21 21 21 21 21 20 20 20
25 25 25 26 25 27 27 26 26 26 26 27 27 25 24 23 23 22 22 22 22 23 23 23 24 24 24 24 24 24 23 23 23 23 23 22 22 22 22 22 22 21 21 21
24 25 25 25 25 26 26 26 25 26 25 26 26 26 26 25 23 22 22 22 22 22 22 23 23 24 25 25 25 25 25 25 25 24 23 23 23 23 23 23 23 22 22 22
23 24 24 25 25 26 25 25 25 25 25 25 25 24 24 23 23 22 22 22 22 22 23 23 23 24 25 26 26 26 26 25 25 25 25 25 24 24 24 23 23 23 23 23
23 23 23 24 24 25 25 24 24 24 24 23 23 23 23 22 23 23 23 23 23 23 23 23 24 24 25 26 27 27 26 26 26 26 26 26 26 26 25 25 24 24 24 25
21 22 22 23 24 24 24 24 23 24 24 23 23 23 23 24 23 23 24 24 24 24 23 24 24 24 25 25 26 26 27 27 26 27 26 26 27 26 26 26 26 25 26 26
20 21 21 21 22 24 24 23 24 24 24 24 24 24 25 24 24 25 24 24 24 24 24 24 24 23 24 25 25 26 27 27 27 27 27 27 27 27 28 28 27 27 27 27
19 20 21 22 22 23 23 23 23 23 23 24 24 24 25 26 25 25 25 25 25 25 24 24 24 24 25 26 26 26 26 27 27 28 28 28 28 28 28 28 28 27 27 26
18 20 20 21 21 22 22 22 22 22 23 24 24 25 25 26 26 26 26 26 25 25 25 25 25 25 26 27 27 27 27 27 28 28 29 29 28 28 28 28 27 28 28 27
19 19 19 19 20 22 22 22 22 21 22 23 23 23 24 25 25 26 27 27 26 26 26 26 26 27 28 28 28 29 28 28 28 28 29 29 29 28 28 28 28 28 27 27
18 19 19 19 20 21 21 21 22 22 22 22 23 23 25 25 26 26 26 27 27 26 26 27 27 28 28 28 28 29 29 29 29 29 29 29 29 29 29 29 29 28 28 29
Wind_Direction
238 237 237 238 238 238 240 242 244 245 247 246 247 247 249 249 250 251 251 249 249 253 255 257 258 260 267 273 276 280 284 287 291 296 298 292 291 292 288 285 281 280 272 261
239 237 237 238 240 242 243 243 244 245 246 246 248 248 247 247 248 248 247 248 250 253 254 257 258 262 267 270 273 278 283 286 287 287 291 290 289 290 285 283 282 278 271 260
239 240 240 241 240 241 243 242 242 243 246 247 247 248 247 247 248 245 245 247 249 252 254 258 260 264 267 267 270 277 280 284 281 282 286 286 287 288 285 283 284 278 270 264
240 240 239 239 240 241 243 241 240 242 244 246 247 246 250 248 245 242 244 248 250 252 254 256 260 261 263 264 269 275 277 282 282 282 284 284 285 287 283 282 280 278 273 266
242 241 239 238 239 241 241 242 241 243 244 245 248 246 247 248 243 243 245 248 251 251 253 255 258 257 261 263 266 269 274 279 282 285 287 285 281 283 282 280 276 274 277 276
243 243 241 239 239 240 240 242 242 243 245 247 247 248 247 248 246 245 246 248 251 253 253 254 256 256 260 263 265 267 271 275 278 284 288 289 286 283 279 279 276 276 278 279
246 245 243 240 239 240 240 240 243 245 247 250 248 247 248 247 247 247 246 248 249 251 251 254 255 257 259 262 264 266 271 272 275 279 284 286 281 280 276 276 274 274 274 274
245 245 244 242 240 241 240 238 238 242 245 248 248 248 250 249 248 247 247 248 250 251 251 251 251 254 258 261 265 267 270 272 273 276 279 282 281 278 276 275 273 272 272 273
243 244 245 243 242 239 239 239 239 242 246 248 248 250 252 251 248 247 247 247 248 250 251 250 250 254 258 260 262 264 269 271 273 274 274 276 279 279 275 275 276 275 272 271
243 243 244 243 241 240 239 239 238 239 242 245 250 251 252 250 248 247 247 247 247 249 250 250 251 254 256 259 261 262 267 270 272 274 272 271 274 275 275 274 273 274 272 271
243 243 243 243 241 241 241 240 240 241 242 244 250 253 250 250 249 248 248 248 248 249 251 252 252 251 253 258 260 261 265 268 270 271 270 269 270 272 273 273 272 272 271 270
243 242 242 243 243 241 241 241 242 242 244 245 247 254 253 251 248 247 247 248 248 249 251 252 251 251 253 256 259 260 262 266 268 268 269 269 270 269 269 271 272 271 272 270
243 243 243 245 247 243 242 242 242 242 246 248 248 253 253 251 250 248 248 248 248 251 251 251 250 250 252 254 257 259 261 263 265 266 267 268 270 269 272 273 272 273 274 271
244 244 242 241 245 245 243 244 244 244 246 248 249 252 252 253 252 250 248 249 248 249 250 250 249 249 251 253 256 259 260 261 261 262 265 267 270 269 269 271 272 274 274 272
247 246 244 242 242 245 246 246 248 247 247 248 249 252 255 256 254 251 249 248 247 247 249 249 249 249 250 251 253 256 258 261 261 260 262 266 268 269 268 268 272 274 275 274
248 248 246 245 244 244 245 246 249 250 249 250 250 251 254 256 252 248 247 248 248 248 248 249 249 249 250 252 254 256 256 259 261 262 264 264 265 267 267 269 272 273 274 275
246 249 248 247 247 246 246 246 248 249 249 248 248 250 252 253 252 248 248 248 250 250 248 248 249 250 252 251 252 254 255 258 261 264 265 266 266 266 267 269 271 273 274 274
246 248 249 248 248 249 248 248 247 247 247 247 248 249 251 253 254 251 250 250 250 250 250 249 249 249 249 250 252 254 255 259 261 264 266 267 267 267 266 268 270 273 273 273
246 247 247 247 248 250 250 249 248 248 248 246 246 247 249 250 250 250 249 250 251 251 251 251 249 248 249 250 253 255 257 259 260 263 266 267 267 269 268 269 270 272 272 272
247 246 246 246 247 249 250 250 249 248 248 246 244 244 245 246 247 247 247 249 250 251 252 251 250 250 250 251 252 255 258 259 261 264 266 267 267 267 267 267 269 271 272 272
245 243 244 246 247 250 250 251 251 250 249 246 245 244 244 245 246 247 248 250 250 250 251 251 250 251 252 252 253 254 257 259 262 264 266 267 266 265 267 268 270 271 271 271
245 244 242 244 247 249 249 250 249 250 250 247 245 244 245 247 248 248 250 251 251 251 252 252 252 253 254 254 255 256 258 260 261 263 264 264 265 266 267 270 271 272 271 270
242 240 240 242 246 249 250 251 251 251 250 249 247 246 247 248 249 248 250 252 253 253 254 253 253 255 256 256 257 257 259 260 262 262 263 263 264 266 268 270 271 271 271 270
243 241 242 243 246 248 249 248 250 251 250 250 250 249 249 249 250 251 251 252 252 252 253 253 253 255 256 256 256 258 260 260 261 262 263 265 266 268 271 273 271 271 273 272
247 244 244 246 249 248 249 249 249 251 253 251 251 250 249 248 249 250 252 252 252 252 254 256 257 258 258 257 258 259 260 260 261 262 263 265 267 269 271 272 274 273 273 273
249 247 247 247 249 250 250 250 251 252 253 252 251 249 249 249 252 253 253 252 253 254 255 256 258 259 259 259 259 259 259 261 262 263 264 266 267 268 270 272 275 274 274 273